Weather in Barvinkove

Ukraine / Kharkiv Region     48˚54′35″N   37˚01′23″E
temp.,
°C
wind,
m/s
gust,
m/s
humid.,
%
clouds,
%
prec.,
mm/h
press.,
hPa
HPBL,
m
29 november, sun
sun2923:00+6˚sse61075100 0.0 1022422
02:00+5˚se5971100 0.0 1022339
05:00+3˚se6107297 0.0 1022284
08:00+2˚se6108791 0.0 1023339
11:00+4˚se698483 0.0 1023373
14:00+5˚se597891 0.0 1023434
17:00+5˚se5986100 0.0 1024313
20:00+4˚se41192100 0.0 1025422
30 november, mon
mon3023:00+4˚se51193100 0.0 1025442
02:00+5˚se61090100 0.0 1025471
05:00+5˚se61089100 0.0 1024526
08:00+5˚se71088100 0.0 1026621
11:00+6˚se7977100 0.0 1026736
14:00+6˚se6969100 0.0 1025771
17:00+4˚ese41075100 0.0 1025553
20:00+5˚ese5972100 0.0 1025800
1 december, tue
tue123:00+4˚ese5972100 0.0 1026630
02:00+3˚ese6971100 0.0 1026528
05:00+2˚e6971100 0.0 1026414
08:00e61080100 0.0 1027506
11:00+1˚e6874100 0.0 1027639
14:00+2˚e697095 0.0 1027640
17:00+1˚e6117788 0.0 1027641
20:00+1˚e7117494 0.0 1028626
2 december, wed
wed223:00e71178100 0.0 1028631
02:00e61183100 0.0 1029600
05:00−1˚ese71183100 0.9 1029624
08:00−1˚ese61081100 0.9 1029650
11:00ese6974100 0.0 1030693
14:00+1˚ese6973100 0.0 1029729
17:00+1˚ese61076100 0.0 1029806
20:00−1˚ese6117598 0.0 1030700
3 december, thu
thu323:00−2˚ese5107870 0.0 1030514
02:00−2˚ese597878 0.0 1030574
05:00−1˚ese4882100 0.0 1030552
08:00−1˚ese5980100 0.0 1030592
11:00ese6977100 0.1 1030657
14:00ese5873100 0.1 1030731
17:00−1˚ese498698 0.0 1030451
20:00−1˚ese598897 0.1 1030513